Location: Newark
(46.1292°N, 1.0086°W)
Time: 11:42:28
(UTC+00:00)

A-11 Canister half - Visible Passes

Search period start: 18 November 2019 00:00
Search period end: 28 November 2019 00:00
Orbit: 1514 x 1686 km, 47.2° (Epoch: 17 November)

Date Brightness Start Highest point End Pass type
(mag) Time Alt. Az. Time Alt. Az. Time Alt. Az.
18 Nov 9.2 18:25:17 10° SW 18:35:17 69° SSE 18:40:24 34° E visible
18 Nov 9.3 20:30:09 10° W 20:38:35 66° W 20:38:35 66° W visible
18 Nov 11.1 22:35:33 10° WNW 22:36:47 15° WNW 22:36:47 15° WNW visible
19 Nov 9.2 18:02:24 10° SW 18:12:20 66° SSE 18:18:44 26° ENE visible
19 Nov 9.0 20:07:10 10° W 20:16:56 82° WNW 20:16:56 82° WNW visible
19 Nov 10.8 22:12:34 10° WNW 22:15:07 21° WNW 22:15:07 21° WNW visible
20 Nov 9.3 17:39:32 10° SW 17:49:25 64° SSE 17:57:03 20° ENE visible
20 Nov 8.9 19:44:12 10° W 19:54:26 86° N 19:55:15 79° ENE visible
20 Nov 10.5 21:49:36 10° WNW 21:53:26 27° WNW 21:53:26 27° WNW visible
21 Nov 9.4 17:16:41 10° SW 17:26:30 61° SSE 17:35:21 14° ENE visible
21 Nov 9.0 19:21:15 10° W 19:31:28 87° N 19:33:33 63° ENE visible
21 Nov 10.2 21:26:38 10° WNW 21:31:45 35° WNW 21:31:45 35° WNW visible
22 Nov 9.5 16:53:50 10° SW 17:03:35 59° SSE 17:13:29 10° ENE visible
22 Nov 9.1 18:58:17 10° W 19:08:29 87° N 19:11:51 50° ENE visible
22 Nov 9.8 21:03:40 10° WNW 21:10:02 45° WNW 21:10:02 45° WNW visible
23 Nov 9.1 18:35:19 10° WSW 18:45:30 88° NNW 18:50:08 39° ENE visible
23 Nov 9.5 20:40:41 10° WNW 20:48:19 57° WNW 20:48:19 57° WNW visible
23 Nov 11.2 22:45:56 10° WNW 22:46:31 12° WNW 22:46:31 12° WNW visible
24 Nov 9.1 18:12:22 10° WSW 18:22:32 89° N 18:28:25 30° ENE visible
24 Nov 9.2 20:17:43 10° W 20:26:37 72° WNW 20:26:37 72° WNW visible
24 Nov 11.0 22:22:57 10° WNW 22:24:48 17° WNW 22:24:48 17° WNW visible
25 Nov 9.2 17:49:25 10° WSW 17:59:33 89° SSE 18:06:43 23° ENE visible
25 Nov 9.0 19:54:45 10° W 20:04:55 88° NNW 20:04:55 88° NNW visible
25 Nov 10.7 21:59:58 10° WNW 22:03:06 23° WNW 22:03:06 23° WNW visible
26 Nov 9.2 17:26:29 10° WSW 17:36:35 88° SSE 17:45:02 17° ENE visible
26 Nov 8.9 19:31:47 10° W 19:42:01 88° N 19:43:14 74° E visible
26 Nov 10.4 21:37:00 10° WNW 21:41:26 29° W 21:41:26 29° W visible
27 Nov 9.2 17:03:33 10° WSW 17:13:37 87° SSE 17:23:23 12° ENE visible
27 Nov 9.0 19:08:49 10° W 19:19:02 87° N 19:21:34 58° E visible
27 Nov 10.1 21:14:02 10° WNW 21:19:46 38° W 21:19:46 38° W visible
